THOR ABLESTAR DEB, 333

Orbit data source: Space-Track

THOR ABLESTAR DEB, 333 is space debris in LEO originally from a launch on Thu, 29 Jun 1961 UTC launched from the Air Force Eastern Test Range (AFETR). Debris objects in space refer to the collection of defunct objects orbiting the Earth. Examples of debris include non-operational satellites, rocket bodies, and fragments generated from explosions, collisions, or faulty payload assembly.

Loading next visibility...
THOR ABLESTAR DEB details
Identifier
333, 1961-015DK
Orbit
LEO
Last TLE update13 hours ago
Origin
Flag of USUSAF SSD (US)
ManufacturerUnknown
MissionSpacecraft
Bus & MotorUnknown
MassUnknown
Launch date (UTC)
1961-06-29 (64 years ago)
Launch vehicleUnknown
Launch site
Air Force Eastern Test Range (AFETR)
Object type
Payload
Rocket body
Debris
Shape & HBRUnknown
Radar Cross SectionSmall (<0.1 m²)

Expand to show TLE details & history

TLE from 13 hours ago
0 THOR ABLESTAR DEB
1   333U 61015DK  25037.50886205  .00012584  00000-0  18371-2 0  9995
2   333  66.7051 111.4772 0045800 310.5062  49.2072 14.75258775316008
Epoch: 2025-02-06T12:12Z
Definitive object data (Epoch: 2025-02-06T12:12:45.681Z)
Latitude-0.00002°
Longitude151.40242°
Altitude625.551 km
Speed7.558 km/s
True Right ascension07h 25m 54s
True Declination0° 00' 00"
Sunlit
Object was in full shadow at TLE epoch
Visualization TLE readout
Latitude-46.66332°
Longitude122.91494°
Altitude629.35 km
Speed7.56 km/s
Apparent Right ascension10h 26m 23s
Apparent Declination-71° 55' 25"
Sunlit
Object is in daylight
Visualization observer readout
Local Sidereal Time03:08:52
Azimuth156.181° SSE
Elevation-43.548°
Doppler factor1
Orbital elements
Apogee altitude674.825 km
Perigee altitude610.515 km
Semi-major axis7,020.807 km
Eccentricity0.00458
Inclination66.7051°
RAAN111.4772°
Arg. of periapsis310.5062°
True anomaly49.60602°
Mean anomaly49.2072°
Eccentric anomaly49.40646°
Mean motion3.68946 °/min
BSTAR0.0018371
Orbital period97.58 mins
Loading maneuver chart data...

THOR ABLESTAR DEB Visibility forecast

Observer location: undefined°, undefined

Span
Click to sort rows by Start time (UTC) header in descending order
Start Az.
Max El. time (UTC)
Max El. Az.
Max El.
End time (UTC)
End Az.
8 mins2025-02-07 06:14:42.733Z195.925° SSW2025-02-07 06:18:42.733Z79.562° E41.431°2025-02-07 06:22:42.733Z34.672° NE
4 mins2025-02-07 07:57:42.733Z295.664° NW2025-02-07 07:58:42.733Z310.712° NW15.493°2025-02-07 08:01:42.733Z351.879° N
6 mins2025-02-07 14:47:42.733Z2.05° NNE2025-02-07 14:50:42.733Z64.991° ENE28.782°2025-02-07 14:53:42.733Z112.886° SE
6 mins2025-02-07 16:27:42.733Z296.445° NW2025-02-07 16:30:42.733Z243.219° WSW24.575°2025-02-07 16:33:42.733Z197.838° SSW
|